OCN76 EDDF-CYYC

Flight info

Callsign OCN76
Flight time N/A
Altitude 24000
Route MARUN7F/25C MARUN Y152 ARPEG/N0460F360 Z850 ABILU DCT ATPAQ/N0465F380 DCT REXMI DCT KARLI DCT GUNPA/M082F380 DCT 65N010W 6730N02000W 6930N03000W 71N040W/M081F400 72N060W DCT INGUM/N0472F400 DCT 7130N07000W 7030N08000W 6830N09000W 65N100W 62N105W DCT YMM Q856 LETRM/N0453F390 DCT IGVUX/N0452F400 Q882 BIRKO BIRKO6
Aircraft A333/H-SDE2E3FGHIJ3J4J5LM1OP2RWXYZ/LB2D1

Departure

Time N/A
Airport Frankfurt Main Airport (EDDF)

Arrival

Time 2026-05-04 16:41
Airport Calgary International Airport (CYYC)
Time Latitude Longitude Altitude Speed Heading
2026-05-04 08:50 59.97382 1.57254 34920 ft 409 kts 318°
2026-05-04 08:50 59.99672 1.53881 34919 ft 409 kts 318°
2026-05-04 08:51 60.04250 1.47121 34919 ft 409 kts 318°
2026-05-04 08:51 60.08825 1.40341 34922 ft 409 kts 318°
2026-05-04 08:52 60.13394 1.33547 34919 ft 409 kts 318°
2026-05-04 08:52 60.17966 1.26725 34954 ft 410 kts 318°
2026-05-04 08:54 60.36177 0.99308 34931 ft 408 kts 318°
2026-05-04 08:55 60.40718 0.92410 34930 ft 408 kts 318°
2026-05-04 08:55 60.45252 0.85498 34930 ft 408 kts 318°
2026-05-04 09:01 60.92673 0.11689 34938 ft 408 kts 317°
2026-05-04 09:01 60.97167 0.04546 34936 ft 408 kts 317°
2026-05-04 09:02 61.01465 -0.03011 34926 ft 405 kts 313°
2026-05-04 09:02 61.05514 -0.11015 34955 ft 402 kts 312°
2026-05-04 09:03 61.09512 -0.19109 34934 ft 403 kts 311°
2026-05-04 09:03 61.13505 -0.27247 34932 ft 403 kts 311°
2026-05-04 09:04 61.17499 -0.35397 34931 ft 403 kts 311°
2026-05-04 09:04 61.21491 -0.43563 34931 ft 403 kts 311°
2026-05-04 09:05 61.25476 -0.51743 34931 ft 403 kts 311°
2026-05-04 09:05 61.29457 -0.59947 34937 ft 403 kts 311°
2026-05-04 09:06 61.33432 -0.68168 34967 ft 403 kts 311°
2026-05-04 09:08 61.49435 -1.01591 34939 ft 408 kts 311°
2026-05-04 09:08 61.53405 -1.09962 34939 ft 407 kts 311°
2026-05-04 09:09 61.57394 -1.18404 34939 ft 407 kts 311°
2026-05-04 09:09 61.61377 -1.26870 34938 ft 407 kts 311°
2026-05-04 09:10 61.65353 -1.35351 34938 ft 407 kts 311°
2026-05-04 09:10 61.69326 -1.43860 34935 ft 407 kts 311°
2026-05-04 09:11 61.73276 -1.52351 34944 ft 404 kts 311°
2026-05-04 09:11 61.77202 -1.60825 34944 ft 404 kts 310°
2026-05-04 09:12 61.81124 -1.69324 34944 ft 404 kts 310°
2026-05-04 09:14 61.96825 -2.03686 34952 ft 412 kts 310°
2026-05-04 09:14 62.00773 -2.12407 34953 ft 412 kts 310°
2026-05-04 09:15 62.04735 -2.21194 34947 ft 409 kts 310°
2026-05-04 09:15 62.08656 -2.29922 34955 ft 406 kts 310°
2026-05-04 09:17 62.26231 -2.69516 34958 ft 415 kts 310°
2026-05-04 09:18 62.30200 -2.78554 34956 ft 416 kts 310°
2026-05-04 09:18 62.34165 -2.87615 34957 ft 416 kts 310°
2026-05-04 09:19 62.38116 -2.96686 34964 ft 414 kts 310°
2026-05-04 09:19 62.42037 -3.05722 34965 ft 411 kts 310°
2026-05-04 09:20 62.45932 -3.14742 34963 ft 411 kts 310°
2026-05-04 09:20 62.49825 -3.23794 34990 ft 412 kts 310°
2026-05-04 09:21 62.53748 -3.32956 34962 ft 418 kts 310°
2026-05-04 09:21 62.57674 -3.42158 34969 ft 418 kts 310°
2026-05-04 09:22 62.61618 -3.51440 34969 ft 418 kts 310°
2026-05-04 09:22 62.65558 -3.60752 34969 ft 418 kts 310°
2026-05-04 09:23 62.69492 -3.70089 34972 ft 418 kts 310°
2026-05-04 09:23 62.73402 -3.79409 34966 ft 415 kts 309°
2026-05-04 09:25 62.88943 -4.16855 34972 ft 417 kts 309°
2026-05-04 09:26 62.92827 -4.26312 34976 ft 417 kts 309°
2026-05-04 09:26 62.96706 -4.35798 34976 ft 417 kts 309°
2026-05-04 09:27 63.00576 -4.45303 34963 ft 417 kts 309°
2026-05-04 09:27 63.04436 -4.54823 34965 ft 416 kts 309°
2026-05-04 09:28 63.08273 -4.64327 34974 ft 415 kts 309°
2026-05-04 09:28 63.12117 -4.73893 34974 ft 417 kts 309°
2026-05-04 09:29 63.15967 -4.83514 34974 ft 418 kts 309°
2026-05-04 09:29 63.19162 -4.91527 34975 ft 417 kts 309°
2026-05-04 09:30 63.22997 -5.01188 34976 ft 417 kts 309°
2026-05-04 09:30 63.27443 -5.12439 34977 ft 417 kts 309°
2026-05-04 09:31 63.31264 -5.22155 34977 ft 417 kts 309°
2026-05-04 09:31 63.35078 -5.31894 34996 ft 418 kts 309°
2026-05-04 09:32 63.38285 -5.40118 34974 ft 420 kts 309°
2026-05-04 09:34 63.53456 -5.79437 34974 ft 418 kts 308°
2026-05-04 09:34 63.57238 -5.89347 34977 ft 418 kts 308°
2026-05-04 09:35 63.61007 -5.99270 34977 ft 418 kts 308°
2026-05-04 09:35 63.64784 -6.09258 34976 ft 421 kts 308°
2026-05-04 09:37 63.79887 -6.49648 34977 ft 419 kts 308°
2026-05-04 09:38 63.83630 -6.59771 34977 ft 419 kts 308°
2026-05-04 09:38 63.87367 -6.69927 34974 ft 419 kts 308°
2026-05-04 09:39 63.91099 -6.80116 34981 ft 421 kts 308°
2026-05-04 09:39 63.94855 -6.90417 34973 ft 424 kts 308°
2026-05-04 09:40 63.98618 -7.00782 34974 ft 425 kts 308°
2026-05-04 09:40 64.02373 -7.11176 34968 ft 424 kts 308°
2026-05-04 09:42 64.17204 -7.52706 34998 ft 422 kts 308°
2026-05-04 09:43 64.20913 -7.63215 34981 ft 425 kts 308°
2026-05-04 09:43 64.24636 -7.73813 34978 ft 426 kts 307°
2026-05-04 09:44 64.28354 -7.84448 34970 ft 426 kts 307°
2026-05-04 09:46 64.43092 -8.27107 34971 ft 423 kts 307°
2026-05-04 09:46 64.46743 -8.37802 34971 ft 423 kts 307°
2026-05-04 09:47 64.50384 -8.48520 34969 ft 423 kts 307°
2026-05-04 09:49 64.64876 -8.91697 34974 ft 423 kts 307°
2026-05-04 09:51 64.77503 -9.30008 34974 ft 427 kts 307°
2026-05-04 09:51 64.81113 -9.41084 34966 ft 427 kts 306°
2026-05-04 09:52 64.84711 -9.52176 34977 ft 427 kts 306°
2026-05-04 09:52 64.88302 -9.63303 34979 ft 427 kts 306°
2026-05-04 09:53 64.91887 -9.74466 34972 ft 427 kts 306°
2026-05-04 09:53 64.95460 -9.85651 34972 ft 427 kts 306°
2026-05-04 09:54 64.99020 -9.96848 34984 ft 426 kts 306°
2026-05-04 09:54 65.02529 -10.08043 34970 ft 427 kts 306°
2026-05-04 09:55 65.06036 -10.19405 34969 ft 427 kts 306°
2026-05-04 09:55 65.09533 -10.30805 34976 ft 427 kts 305°
2026-05-04 09:56 65.13024 -10.42225 34972 ft 427 kts 305°
2026-05-04 09:56 65.16506 -10.53668 34971 ft 427 kts 305°
2026-05-04 09:57 65.19982 -10.65149 34977 ft 427 kts 305°
2026-05-04 09:57 65.23449 -10.76659 34996 ft 428 kts 305°
2026-05-04 09:58 65.26918 -10.88238 34966 ft 430 kts 305°
2026-05-04 09:58 65.30384 -10.99865 34971 ft 429 kts 305°
2026-05-04 10:00 65.44114 -11.46528 34985 ft 428 kts 304°
2026-05-04 10:04 65.67807 -12.29433 34991 ft 428 kts 304°
2026-05-04 10:04 65.71148 -12.41377 34989 ft 428 kts 304°
2026-05-04 10:05 65.74483 -12.53361 35014 ft 428 kts 304°
2026-05-04 10:05 65.77817 -12.65408 34983 ft 430 kts 304°
2026-05-04 10:06 65.81153 -12.77529 35000 ft 431 kts 304°
2026-05-04 10:06 65.84482 -12.89689 34972 ft 431 kts 303°
2026-05-04 10:08 65.95967 -13.32167 34999 ft 427 kts 303°
2026-05-04 10:08 65.99224 -13.44364 35020 ft 427 kts 303°
2026-05-04 10:09 66.02484 -13.56636 35025 ft 431 kts 303°
2026-05-04 10:09 66.05756 -13.69025 35002 ft 432 kts 303°
2026-05-04 10:10 66.09022 -13.81461 35002 ft 432 kts 303°
2026-05-04 10:10 66.12253 -13.93834 35015 ft 432 kts 303°
2026-05-04 10:11 66.15489 -14.06296 35016 ft 430 kts 303°
2026-05-04 10:11 66.18705 -14.18749 35019 ft 429 kts 302°
2026-05-04 10:12 66.21908 -14.31224 35019 ft 429 kts 302°
2026-05-04 10:12 66.25102 -14.43736 35033 ft 430 kts 302°
2026-05-04 10:13 66.28298 -14.56324 35029 ft 431 kts 302°
2026-05-04 10:13 66.31487 -14.68959 35029 ft 431 kts 302°
2026-05-04 10:14 66.34665 -14.81621 35051 ft 431 kts 302°
2026-05-04 10:16 66.47237 -15.32449 35088 ft 428 kts 302°
2026-05-04 10:16 66.50347 -15.45204 35069 ft 430 kts 302°
2026-05-04 10:17 66.53460 -15.58051 35057 ft 431 kts 302°
2026-05-04 10:19 66.65797 -16.09708 35075 ft 431 kts 301°
2026-05-04 10:19 66.68858 -16.22718 35092 ft 430 kts 301°
2026-05-04 10:20 66.71896 -16.35713 35093 ft 430 kts 301°
2026-05-04 10:20 66.74939 -16.48802 35088 ft 433 kts 301°
2026-05-04 10:21 66.77467 -16.59733 35090 ft 433 kts 301°
2026-05-04 10:21 66.80500 -16.72923 35102 ft 433 kts 301°
2026-05-04 10:22 66.85026 -16.92764 35101 ft 433 kts 300°
2026-05-04 10:23 66.88029 -17.06025 35102 ft 433 kts 300°
2026-05-04 10:25 66.99896 -17.59254 35141 ft 429 kts 300°
2026-05-04 10:25 67.02815 -17.72550 35140 ft 429 kts 300°
2026-05-04 10:26 67.05724 -17.85884 35138 ft 429 kts 300°
2026-05-04 10:26 67.08624 -17.99260 35137 ft 429 kts 299°
2026-05-04 10:27 67.11511 -18.12660 35156 ft 429 kts 299°
2026-05-04 10:27 67.14387 -18.26094 35157 ft 429 kts 299°
2026-05-04 10:28 67.17258 -18.39589 35159 ft 431 kts 299°
2026-05-04 10:28 67.20131 -18.53176 35155 ft 432 kts 299°
2026-05-04 10:29 67.22985 -18.66764 35177 ft 429 kts 298°
2026-05-04 10:29 67.25815 -18.80328 35178 ft 429 kts 298°
2026-05-04 10:30 67.28635 -18.93923 35179 ft 429 kts 298°
2026-05-04 10:30 67.31442 -19.07550 35181 ft 429 kts 298°
2026-05-04 10:31 67.34239 -19.21214 35184 ft 429 kts 298°
2026-05-04 10:32 67.43944 -19.69316 35203 ft 432 kts 298°
2026-05-04 10:33 67.46703 -19.83199 35203 ft 432 kts 298°
2026-05-04 10:33 67.49464 -19.97103 35219 ft 431 kts 300°
2026-05-04 10:34 67.52619 -20.10418 35225 ft 431 kts 302°
2026-05-04 10:34 67.55875 -20.23599 35225 ft 431 kts 303°
2026-05-04 10:35 67.59145 -20.36781 35244 ft 432 kts 303°
2026-05-04 10:35 67.62408 -20.50025 35244 ft 433 kts 303°
2026-05-04 10:36 67.65667 -20.63362 35243 ft 434 kts 303°
2026-05-04 10:36 67.68915 -20.76748 35248 ft 433 kts 302°
2026-05-04 10:37 67.72144 -20.90141 35254 ft 433 kts 302°
2026-05-04 10:37 67.75367 -21.03589 35255 ft 433 kts 302°
2026-05-04 10:39 67.86507 -21.50724 35269 ft 435 kts 302°
2026-05-04 10:40 67.89687 -21.64369 35285 ft 435 kts 302°
2026-05-04 10:40 67.92859 -21.78063 35283 ft 435 kts 301°
2026-05-04 10:41 67.96016 -21.91780 35291 ft 435 kts 301°
2026-05-04 10:41 67.99163 -22.05545 35293 ft 435 kts 301°
2026-05-04 10:42 68.02299 -22.19345 35300 ft 435 kts 301°
2026-05-04 10:42 68.05427 -22.33200 35307 ft 436 kts 301°
2026-05-04 10:43 68.08552 -22.47131 35301 ft 437 kts 301°
2026-05-04 10:45 68.20881 -23.02991 35325 ft 435 kts 300°
2026-05-04 10:45 68.23932 -23.17044 35325 ft 435 kts 300°
2026-05-04 10:46 68.26975 -23.31150 35326 ft 436 kts 300°
2026-05-04 10:46 68.30018 -23.45346 35333 ft 437 kts 300°
2026-05-04 10:47 68.33053 -23.59602 35331 ft 437 kts 300°
2026-05-04 10:47 68.36055 -23.73799 35332 ft 437 kts 300°
2026-05-04 10:49 68.47965 -24.31077 35346 ft 436 kts 299°
2026-05-04 10:50 68.50926 -24.45555 35344 ft 438 kts 299°
2026-05-04 10:52 68.62655 -25.03922 35354 ft 438 kts 298°
2026-05-04 10:52 68.65556 -25.18611 35344 ft 438 kts 298°
2026-05-04 10:54 68.77037 -25.77771 35357 ft 438 kts 297°
2026-05-04 10:56 68.88307 -26.37522 35388 ft 439 kts 297°
2026-05-04 10:57 68.91109 -26.52645 35393 ft 442 kts 297°
2026-05-04 10:57 68.93903 -26.67844 35390 ft 441 kts 297°
2026-05-04 10:58 68.96684 -26.83070 35392 ft 441 kts 296°
2026-05-04 10:58 68.99436 -26.98264 35399 ft 438 kts 296°
2026-05-04 10:59 69.02169 -27.13458 35411 ft 438 kts 296°
2026-05-04 10:59 69.04866 -27.28582 35411 ft 438 kts 296°
2026-05-04 11:00 69.07588 -27.43948 35410 ft 438 kts 296°
2026-05-04 11:02 69.18244 -28.05233 35441 ft 438 kts 295°
2026-05-04 11:05 69.37686 -29.22113 35450 ft 439 kts 294°
2026-05-04 11:06 69.40223 -29.37882 35460 ft 439 kts 294°
2026-05-04 11:06 69.42727 -29.53574 35473 ft 439 kts 294°
2026-05-04 11:10 69.61837 -30.62827 35484 ft 439 kts 297°
2026-05-04 11:12 69.72768 -31.22735 35465 ft 442 kts 297°
2026-05-04 11:12 69.75590 -31.38481 35438 ft 442 kts 297°
2026-05-04 11:13 69.78399 -31.54278 35441 ft 442 kts 296°
2026-05-04 11:13 69.81194 -31.70116 35443 ft 443 kts 296°
2026-05-04 11:14 69.81649 -31.72705 35443 ft 444 kts 296°
2026-05-04 11:16 69.94972 -32.50036 35419 ft 442 kts 295°
2026-05-04 11:16 69.97681 -32.66125 35419 ft 442 kts 295°
2026-05-04 11:17 70.00379 -32.82278 35412 ft 444 kts 295°
2026-05-04 11:19 70.11062 -33.47550 35396 ft 445 kts 295°
2026-05-04 11:19 70.13701 -33.64009 35383 ft 445 kts 294°
2026-05-04 11:20 70.16317 -33.80460 35398 ft 443 kts 294°
2026-05-04 11:20 70.18919 -33.96962 35390 ft 445 kts 294°
2026-05-04 11:22 70.29217 -34.63648 35376 ft 446 kts 294°
2026-05-04 11:23 70.31752 -34.80416 35379 ft 446 kts 293°
2026-05-04 11:25 70.40539 -35.39703 35363 ft 449 kts 293°
2026-05-04 11:25 70.43006 -35.56676 35363 ft 449 kts 293°
2026-05-04 11:27 70.53987 -36.34142 35352 ft 452 kts 292°
2026-05-04 11:28 70.56395 -36.51564 35350 ft 452 kts 292°
2026-05-04 11:28 70.58785 -36.69014 35349 ft 452 kts 292°
2026-05-04 11:29 70.61158 -36.86501 35341 ft 452 kts 292°
2026-05-04 11:29 70.63515 -37.04042 35341 ft 452 kts 291°
2026-05-04 11:33 70.79549 -38.28021 35343 ft 451 kts 290°
2026-05-04 11:33 70.81751 -38.45733 35346 ft 451 kts 290°
2026-05-04 11:34 70.83951 -38.63602 35350 ft 451 kts 290°
2026-05-04 11:34 70.86134 -38.81521 35349 ft 451 kts 290°
2026-05-04 11:35 70.88299 -38.99468 35351 ft 451 kts 290°
2026-05-04 11:35 70.90446 -39.17446 35357 ft 451 kts 290°
2026-05-04 11:36 70.92577 -39.35481 35357 ft 451 kts 290°
2026-05-04 11:36 70.94690 -39.53552 35367 ft 452 kts 289°
2026-05-04 11:37 70.96788 -39.71686 35362 ft 451 kts 289°
2026-05-04 11:37 70.98863 -39.89804 35360 ft 450 kts 289°
2026-05-04 11:38 71.00896 -40.07963 35374 ft 450 kts 288°
2026-05-04 11:38 71.02850 -40.26227 35374 ft 450 kts 288°
2026-05-04 11:39 71.04774 -40.44547 35386 ft 450 kts 288°
2026-05-04 11:41 71.11397 -41.08868 35394 ft 452 kts 288°
2026-05-04 11:41 71.13258 -41.27408 35393 ft 452 kts 287°
2026-05-04 11:42 71.15101 -41.45976 35399 ft 452 kts 287°
2026-05-04 11:42 71.16926 -41.64591 35404 ft 452 kts 287°
2026-05-04 11:43 71.18728 -41.83194 35411 ft 450 kts 287°
2026-05-04 11:43 71.20505 -42.01763 35418 ft 449 kts 287°
2026-05-04 11:44 71.22266 -42.20385 35416 ft 450 kts 287°
2026-05-04 11:44 71.24009 -42.39054 35416 ft 450 kts 287°
2026-05-04 11:45 71.25734 -42.57757 35437 ft 450 kts 286°
2026-05-04 11:45 71.27441 -42.76498 35437 ft 450 kts 286°
2026-05-04 11:46 71.29129 -42.95273 35446 ft 450 kts 286°
2026-05-04 11:46 71.30797 -43.14069 35444 ft 450 kts 286°
2026-05-04 11:47 71.32448 -43.32909 35444 ft 451 kts 286°
2026-05-04 11:47 71.34085 -43.51837 35458 ft 452 kts 285°
2026-05-04 11:48 71.35705 -43.70818 35452 ft 452 kts 285°
2026-05-04 11:48 71.37303 -43.89806 35452 ft 451 kts 285°
2026-05-04 11:49 71.38874 -44.08729 35463 ft 448 kts 285°
2026-05-04 11:49 71.40413 -44.27518 35465 ft 448 kts 285°
2026-05-04 11:50 71.41943 -44.46457 35474 ft 448 kts 285°
2026-05-04 11:50 71.43456 -44.65446 35468 ft 450 kts 284°
2026-05-04 11:51 71.44954 -44.84523 35468 ft 450 kts 284°
2026-05-04 11:51 71.46432 -45.03621 35471 ft 450 kts 284°
2026-05-04 11:52 71.47891 -45.22750 35472 ft 450 kts 284°
2026-05-04 11:52 71.49330 -45.41895 35470 ft 450 kts 284°
2026-05-04 11:53 71.50752 -45.61091 35478 ft 450 kts 284°
2026-05-04 11:53 71.52153 -45.80309 35482 ft 450 kts 283°
2026-05-04 11:55 71.57556 -46.57330 35487 ft 448 kts 283°
2026-05-04 11:56 71.58856 -46.76613 35487 ft 448 kts 283°
2026-05-04 11:56 71.60136 -46.95928 35492 ft 448 kts 282°
2026-05-04 11:57 71.61388 -47.15141 35492 ft 449 kts 282°
2026-05-04 11:57 71.62631 -47.34520 35492 ft 449 kts 282°
2026-05-04 11:58 71.63853 -47.53915 35492 ft 449 kts 282°
2026-05-04 11:58 71.65055 -47.73339 35495 ft 449 kts 282°
2026-05-04 11:59 71.66239 -47.92802 35495 ft 449 kts 282°
2026-05-04 11:59 71.67403 -48.12284 35498 ft 449 kts 282°
2026-05-04 12:00 71.68545 -48.31755 35498 ft 447 kts 281°
2026-05-04 12:00 71.69660 -48.51142 35501 ft 445 kts 281°
2026-05-04 12:01 71.70754 -48.70504 35517 ft 445 kts 281°
2026-05-04 12:02 71.74260 -49.35217 35537 ft 445 kts 280°
2026-05-04 12:03 71.75271 -49.54712 35561 ft 446 kts 280°
2026-05-04 12:03 71.76261 -49.74213 35565 ft 445 kts 280°
2026-05-04 12:04 71.77232 -49.93735 35569 ft 445 kts 280°
2026-05-04 12:04 71.78183 -50.13288 35568 ft 446 kts 279°
2026-05-04 12:05 71.79116 -50.32890 35571 ft 446 kts 279°
2026-05-04 12:05 71.80028 -50.52488 35572 ft 445 kts 279°
2026-05-04 12:06 71.80916 -50.72017 35573 ft 444 kts 279°
2026-05-04 12:06 71.81786 -50.91584 35562 ft 444 kts 279°
2026-05-04 12:07 71.82634 -51.11149 35562 ft 444 kts 279°
2026-05-04 12:07 71.83464 -51.30725 35552 ft 444 kts 279°
2026-05-04 12:08 71.84273 -51.50331 35547 ft 444 kts 278°
2026-05-04 12:08 71.85062 -51.69949 35549 ft 444 kts 278°
2026-05-04 12:09 71.85831 -51.89579 35550 ft 444 kts 278°
2026-05-04 12:09 71.86581 -52.09255 35550 ft 444 kts 278°
2026-05-04 12:10 71.87311 -52.28926 35537 ft 444 kts 278°
2026-05-04 12:10 71.88020 -52.48605 35516 ft 444 kts 277°
2026-05-04 12:11 71.88709 -52.68314 35502 ft 443 kts 277°
2026-05-04 12:11 71.89375 -52.87936 35515 ft 441 kts 277°
2026-05-04 12:12 71.90020 -53.07507 35505 ft 440 kts 277°
2026-05-04 12:12 71.90643 -53.27069 35481 ft 440 kts 277°
2026-05-04 12:14 71.92943 -54.05423 35497 ft 441 kts 276°
2026-05-04 12:15 71.93469 -54.25128 35508 ft 442 kts 276°
2026-05-04 12:15 71.93977 -54.44851 35509 ft 441 kts 276°
2026-05-04 12:16 71.94464 -54.64570 35507 ft 441 kts 276°
2026-05-04 12:16 71.94932 -54.84304 35500 ft 441 kts 275°
2026-05-04 12:17 71.95379 -55.04020 35486 ft 440 kts 275°
2026-05-04 12:17 71.95804 -55.23675 35495 ft 438 kts 275°
2026-05-04 12:18 71.96207 -55.43274 35490 ft 438 kts 275°
2026-05-04 12:18 71.96591 -55.62899 35491 ft 438 kts 275°
2026-05-04 12:19 71.96956 -55.82526 35491 ft 438 kts 275°
2026-05-04 12:19 71.97302 -56.02172 35493 ft 438 kts 274°
2026-05-04 12:20 71.97627 -56.21821 35497 ft 438 kts 274°
2026-05-04 12:20 71.97932 -56.41482 35504 ft 438 kts 274°
2026-05-04 12:21 71.98218 -56.61167 35497 ft 439 kts 274°
2026-05-04 12:21 71.98484 -56.80883 35502 ft 440 kts 274°
2026-05-04 12:22 71.98731 -57.00619 35504 ft 440 kts 273°
2026-05-04 12:22 71.98957 -57.20353 35509 ft 440 kts 273°
2026-05-04 12:23 71.99164 -57.40103 35519 ft 440 kts 273°
2026-05-04 12:23 71.99349 -57.59709 35515 ft 440 kts 273°
2026-05-04 12:24 71.99516 -57.79465 35527 ft 440 kts 272°
2026-05-04 12:24 71.99662 -57.99230 35520 ft 440 kts 272°
2026-05-04 12:25 71.99789 -58.19011 35520 ft 440 kts 272°
2026-05-04 12:25 71.99896 -58.38792 35526 ft 440 kts 272°
2026-05-04 12:26 71.99982 -58.58580 35527 ft 440 kts 272°
2026-05-04 12:26 72.00049 -58.78361 35534 ft 440 kts 272°
2026-05-04 12:27 72.00095 -58.98163 35536 ft 440 kts 271°
2026-05-04 12:27 72.00121 -59.17955 35542 ft 440 kts 271°
2026-05-04 12:28 72.00128 -59.37781 35543 ft 441 kts 271°
2026-05-04 12:28 72.00114 -59.57631 35524 ft 441 kts 271°
2026-05-04 12:29 72.00079 -59.77362 35549 ft 437 kts 271°
2026-05-04 12:29 72.00026 -59.96991 35557 ft 436 kts 271°
2026-05-04 12:30 71.99960 -60.16598 35557 ft 436 kts 271°
2026-05-04 12:30 71.99882 -60.36214 35557 ft 436 kts 270°
2026-05-04 12:31 71.99783 -60.55834 35561 ft 437 kts 270°
2026-05-04 12:31 71.99664 -60.75488 35560 ft 438 kts 270°
2026-05-04 12:32 71.99447 -61.04992 35563 ft 438 kts 270°
2026-05-04 12:33 71.99278 -61.24676 35563 ft 438 kts 270°
2026-05-04 12:33 71.99088 -61.44344 35562 ft 438 kts 269°
2026-05-04 12:34 71.98879 -61.64008 35570 ft 438 kts 269°
2026-05-04 12:34 71.98650 -61.83668 35536 ft 438 kts 269°
2026-05-04 12:35 71.98404 -62.03129 35567 ft 434 kts 269°
2026-05-04 12:35 71.98136 -62.22720 35572 ft 433 kts 269°
2026-05-04 12:36 71.97853 -62.42031 35571 ft 433 kts 269°
2026-05-04 12:36 71.97548 -62.61464 35572 ft 434 kts 268°
2026-05-04 12:37 71.97224 -62.80912 35580 ft 434 kts 268°
2026-05-04 12:37 71.96881 -63.00340 35575 ft 433 kts 268°
2026-05-04 12:38 71.96518 -63.19759 35579 ft 433 kts 268°
2026-05-04 12:38 71.96136 -63.39182 35579 ft 434 kts 268°
2026-05-04 12:39 71.95734 -63.58618 35576 ft 435 kts 267°
2026-05-04 12:39 71.95312 -63.78078 35583 ft 435 kts 267°
2026-05-04 12:40 71.94870 -63.97515 35582 ft 435 kts 267°
2026-05-04 12:40 71.94409 -64.16947 35559 ft 435 kts 267°
2026-05-04 12:41 71.93931 -64.36264 35583 ft 431 kts 266°
2026-05-04 12:41 71.93437 -64.55465 35584 ft 430 kts 266°
2026-05-04 12:42 71.92924 -64.74643 35584 ft 430 kts 266°
2026-05-04 12:42 71.92393 -64.93801 35589 ft 430 kts 266°
2026-05-04 12:43 71.91842 -65.12974 35588 ft 430 kts 266°
2026-05-04 12:43 71.91273 -65.32116 35588 ft 430 kts 266°
2026-05-04 12:44 71.90684 -65.51252 35590 ft 430 kts 265°
2026-05-04 12:44 71.90077 -65.70375 35589 ft 430 kts 265°
2026-05-04 12:45 71.89455 -65.89371 35592 ft 430 kts 265°
2026-05-04 12:45 71.88810 -66.08485 35588 ft 430 kts 265°
2026-05-04 12:46 71.88031 -66.27535 35590 ft 431 kts 259°
2026-05-04 12:46 71.86505 -66.46188 35579 ft 432 kts 256°
2026-05-04 12:47 71.84806 -66.64615 35593 ft 430 kts 255°
2026-05-04 12:47 71.83064 -66.82954 35592 ft 430 kts 255°
2026-05-04 12:48 71.81314 -67.01264 35589 ft 430 kts 255°
2026-05-04 12:48 71.79557 -67.19554 35591 ft 430 kts 255°
2026-05-04 12:49 71.77785 -67.37814 35596 ft 430 kts 255°
2026-05-04 12:49 71.76286 -67.53100 35594 ft 431 kts 255°
2026-05-04 12:50 71.74480 -67.71324 35596 ft 431 kts 255°
2026-05-04 12:50 71.72668 -67.89389 35594 ft 431 kts 254°
2026-05-04 12:51 71.70825 -68.07556 35596 ft 431 kts 254°
2026-05-04 12:51 71.68968 -68.25660 35596 ft 430 kts 254°
2026-05-04 12:52 71.67100 -68.43674 35597 ft 429 kts 253°
2026-05-04 12:52 71.65215 -68.61644 35597 ft 429 kts 253°
2026-05-04 12:53 71.63314 -68.79581 35927 ft 429 kts 253°
2026-05-04 12:53 71.62356 -68.88547 36179 ft 431 kts 253°
2026-05-04 12:53 71.61390 -68.97546 36404 ft 432 kts 253°
2026-05-04 12:53 71.60417 -69.06560 36639 ft 433 kts 253°
2026-05-04 12:54 71.59437 -69.15577 36888 ft 434 kts 252°
2026-05-04 12:54 71.58453 -69.24593 37122 ft 434 kts 252°
2026-05-04 12:54 71.57461 -69.33635 37351 ft 435 kts 252°
2026-05-04 12:54 71.56464 -69.42666 37583 ft 436 kts 252°
2026-05-04 12:55 71.55459 -69.51725 37804 ft 437 kts 252°
2026-05-04 12:55 71.54448 -69.60786 38028 ft 438 kts 252°
2026-05-04 12:55 71.53432 -69.69845 38248 ft 439 kts 252°
2026-05-04 12:55 71.52410 -69.78918 38436 ft 439 kts 251°
2026-05-04 12:56 71.51382 -69.87989 38663 ft 440 kts 251°
2026-05-04 12:56 71.50377 -69.97102 38874 ft 440 kts 254°
2026-05-04 12:56 71.49601 -70.06431 39074 ft 441 kts 257°
2026-05-04 12:56 71.48892 -70.15814 39261 ft 442 kts 257°
2026-05-04 12:57 71.48212 -70.25249 39423 ft 442 kts 258°
2026-05-04 12:57 71.47545 -70.34688 39602 ft 443 kts 258°
2026-05-04 12:57 71.46879 -70.44133 39760 ft 443 kts 258°
2026-05-04 12:57 71.46209 -70.53579 39933 ft 443 kts 258°
2026-05-04 12:58 71.45531 -70.63016 40097 ft 443 kts 257°
2026-05-04 12:58 71.44855 -70.72328 40261 ft 443 kts 257°
2026-05-04 12:58 71.44154 -70.81868 40424 ft 443 kts 257°
2026-05-04 12:58 71.43464 -70.91169 40556 ft 444 kts 257°
2026-05-04 12:59 71.42757 -71.00627 40584 ft 447 kts 257°
2026-05-04 12:59 71.41321 -71.19612 40588 ft 447 kts 257°
2026-05-04 13:00 71.39868 -71.38549 40589 ft 447 kts 257°
2026-05-04 13:00 71.38396 -71.57446 40591 ft 447 kts 256°
2026-05-04 13:01 71.36906 -71.76330 40570 ft 447 kts 256°
2026-05-04 13:01 71.35392 -71.95230 40579 ft 448 kts 256°
2026-05-04 13:02 71.33860 -72.14098 40565 ft 448 kts 256°
2026-05-04 13:02 71.32308 -72.32952 40568 ft 448 kts 256°
2026-05-04 13:03 71.30736 -72.51778 40564 ft 448 kts 256°
2026-05-04 13:03 71.29148 -72.70556 40562 ft 448 kts 255°
2026-05-04 13:04 71.27539 -72.89328 40556 ft 448 kts 255°
2026-05-04 13:04 71.25911 -73.08061 40551 ft 449 kts 255°
2026-05-04 13:05 71.24264 -73.26768 40557 ft 449 kts 255°
2026-05-04 13:05 71.22611 -73.45319 40530 ft 449 kts 255°
2026-05-04 13:06 71.20927 -73.63966 40536 ft 449 kts 255°
2026-05-04 13:06 71.19224 -73.82593 40542 ft 449 kts 254°
2026-05-04 13:07 71.17501 -74.01203 40543 ft 450 kts 254°
2026-05-04 13:07 71.15757 -74.19809 40526 ft 450 kts 254°
2026-05-04 13:08 71.13994 -74.38379 40521 ft 450 kts 253°
2026-05-04 13:08 71.12212 -74.56928 40524 ft 450 kts 253°
2026-05-04 13:09 71.10412 -74.75437 40523 ft 450 kts 253°
2026-05-04 13:09 71.08592 -74.93929 40511 ft 450 kts 253°
2026-05-04 13:10 71.06755 -75.12374 40525 ft 450 kts 253°
2026-05-04 13:10 71.04899 -75.30790 40503 ft 450 kts 253°
2026-05-04 13:11 71.03026 -75.49165 40506 ft 451 kts 252°
2026-05-04 13:11 71.01131 -75.67539 40481 ft 451 kts 252°
2026-05-04 13:12 70.99220 -75.85857 40483 ft 450 kts 252°
2026-05-04 13:12 70.97294 -76.04114 40483 ft 450 kts 252°
2026-05-04 13:13 70.95352 -76.22317 40480 ft 449 kts 252°
2026-05-04 13:13 70.93393 -76.40477 40477 ft 449 kts 252°
2026-05-04 13:14 70.91414 -76.58625 40476 ft 450 kts 251°
2026-05-04 13:14 70.89417 -76.76736 40466 ft 451 kts 251°
2026-05-04 13:15 70.87407 -76.94773 40463 ft 453 kts 251°
2026-05-04 13:15 70.85362 -77.12922 40462 ft 453 kts 251°
2026-05-04 13:16 70.83300 -77.31023 40441 ft 453 kts 251°
2026-05-04 13:16 70.81219 -77.49103 40439 ft 453 kts 251°
2026-05-04 13:17 70.79121 -77.67142 40439 ft 453 kts 250°
2026-05-04 13:17 70.77007 -77.85127 40440 ft 453 kts 250°
2026-05-04 13:18 70.74872 -78.03101 40430 ft 453 kts 250°
2026-05-04 13:18 70.72723 -78.21011 40420 ft 453 kts 250°
2026-05-04 13:19 70.70551 -78.38918 40418 ft 453 kts 250°
2026-05-04 13:19 70.68367 -78.56755 40424 ft 453 kts 250°
2026-05-04 13:20 70.66163 -78.74565 40407 ft 453 kts 249°
2026-05-04 13:20 70.63945 -78.92322 40405 ft 453 kts 249°
2026-05-04 13:21 70.61706 -79.10059 40401 ft 453 kts 249°
2026-05-04 13:21 70.59451 -79.27751 40400 ft 452 kts 249°
2026-05-04 13:22 70.57183 -79.45371 40374 ft 452 kts 249°
2026-05-04 13:22 70.54892 -79.63002 40388 ft 454 kts 249°
2026-05-04 13:23 70.52595 -79.80506 40388 ft 454 kts 248°
2026-05-04 13:23 70.50262 -79.98095 40402 ft 454 kts 248°
2026-05-04 13:24 70.47704 -80.15380 40386 ft 454 kts 245°
2026-05-04 13:24 70.44981 -80.32419 40391 ft 454 kts 244°
2026-05-04 13:25 70.40870 -80.57929 40395 ft 455 kts 244°
2026-05-04 13:25 70.38132 -80.74917 40397 ft 455 kts 244°
2026-05-04 13:26 70.35383 -80.91876 40388 ft 455 kts 244°
2026-05-04 13:26 70.32619 -81.08789 40395 ft 455 kts 244°
2026-05-04 13:27 70.29837 -81.25658 40398 ft 455 kts 244°
2026-05-04 13:27 70.27039 -81.42484 40403 ft 456 kts 244°
2026-05-04 13:28 70.24220 -81.59287 40395 ft 456 kts 243°
2026-05-04 13:28 70.21385 -81.76056 40396 ft 456 kts 243°
2026-05-04 13:29 70.18533 -81.92783 40401 ft 456 kts 243°
2026-05-04 13:29 70.15665 -82.09461 40393 ft 456 kts 243°
2026-05-04 13:30 70.12781 -82.26102 40409 ft 456 kts 243°
2026-05-04 13:30 70.09884 -82.42683 40398 ft 456 kts 243°
2026-05-04 13:31 70.06989 -82.59119 40395 ft 457 kts 243°
2026-05-04 13:31 70.04058 -82.75627 40385 ft 457 kts 242°
2026-05-04 13:32 70.01108 -82.92108 40401 ft 458 kts 242°
2026-05-04 13:32 69.98139 -83.08565 40403 ft 458 kts 242°
2026-05-04 13:33 69.95156 -83.24971 40389 ft 458 kts 242°
2026-05-04 13:33 69.92156 -83.41333 40380 ft 458 kts 242°
2026-05-04 13:34 69.89143 -83.57643 40376 ft 458 kts 242°
2026-05-04 13:34 69.86114 -83.73908 40383 ft 458 kts 241°
2026-05-04 13:35 69.81537 -83.98252 40377 ft 459 kts 241°
2026-05-04 13:36 69.78465 -84.14433 40377 ft 459 kts 241°
2026-05-04 13:36 69.75381 -84.30556 40368 ft 458 kts 240°
2026-05-04 13:37 69.72283 -84.46623 40369 ft 457 kts 240°
2026-05-04 13:37 69.69179 -84.62599 40372 ft 457 kts 240°
2026-05-04 13:38 69.66056 -84.78551 40357 ft 458 kts 240°
2026-05-04 13:38 69.62920 -84.94452 40362 ft 458 kts 240°
2026-05-04 13:39 69.60301 -85.07640 40359 ft 458 kts 240°
2026-05-04 13:39 69.57133 -85.23479 40349 ft 458 kts 240°
2026-05-04 13:40 69.53950 -85.39279 40349 ft 458 kts 240°
2026-05-04 13:40 69.50756 -85.55012 40348 ft 458 kts 240°
2026-05-04 13:41 69.47545 -85.70716 40351 ft 458 kts 239°
2026-05-04 13:41 69.44316 -85.86391 40333 ft 460 kts 239°
2026-05-04 13:42 69.39431 -86.09888 40342 ft 459 kts 239°
2026-05-04 13:42 69.36169 -86.25431 40344 ft 458 kts 239°
2026-05-04 13:43 69.32895 -86.40923 40338 ft 458 kts 239°
2026-05-04 13:43 69.29609 -86.56360 40338 ft 458 kts 238°
2026-05-04 13:44 69.26330 -86.71652 40337 ft 458 kts 238°
2026-05-04 13:44 69.23014 -86.87005 40334 ft 458 kts 238°
2026-05-04 13:45 69.19685 -87.02308 40339 ft 458 kts 238°
2026-05-04 13:45 69.16342 -87.17573 40333 ft 459 kts 238°
2026-05-04 13:46 69.12982 -87.32802 40337 ft 459 kts 238°
2026-05-04 13:46 69.09608 -87.47987 40328 ft 459 kts 238°
2026-05-04 13:47 69.06220 -87.63128 40331 ft 459 kts 238°
2026-05-04 13:47 69.02816 -87.78236 40332 ft 459 kts 237°
2026-05-04 13:48 68.99401 -87.93286 40333 ft 459 kts 237°
2026-05-04 13:48 68.95972 -88.08290 40331 ft 459 kts 237°
2026-05-04 13:49 68.92526 -88.23267 40329 ft 460 kts 237°
2026-05-04 13:49 68.89064 -88.38210 40330 ft 460 kts 237°
2026-05-04 13:50 68.85589 -88.53104 40339 ft 460 kts 237°
2026-05-04 13:50 68.82097 -88.67968 40330 ft 461 kts 237°
2026-05-04 13:51 68.78611 -88.82706 40329 ft 461 kts 237°
2026-05-04 13:51 68.75090 -88.97491 40332 ft 461 kts 236°
2026-05-04 13:52 68.69784 -89.19587 40325 ft 461 kts 236°
2026-05-04 13:53 68.66234 -89.34244 40334 ft 461 kts 236°
2026-05-04 13:53 68.62669 -89.48864 40332 ft 461 kts 236°
2026-05-04 13:54 68.57298 -89.70704 40330 ft 461 kts 236°
2026-05-04 13:55 68.51898 -89.92443 40338 ft 461 kts 235°
2026-05-04 13:55 68.46286 -90.13801 40319 ft 463 kts 232°
2026-05-04 13:56 68.42382 -90.27712 40311 ft 462 kts 232°
2026-05-04 13:57 68.36520 -90.48493 40322 ft 462 kts 232°
2026-05-04 13:58 68.28697 -90.76125 40310 ft 463 kts 232°
2026-05-04 13:58 68.22799 -90.96735 40317 ft 463 kts 232°
2026-05-04 13:59 68.18850 -91.10424 40306 ft 464 kts 232°
2026-05-04 14:00 68.12888 -91.30930 40301 ft 465 kts 232°
2026-05-04 14:00 68.06898 -91.51340 40303 ft 464 kts 231°
2026-05-04 14:01 68.02893 -91.64878 40299 ft 464 kts 231°
2026-05-04 14:02 67.96859 -91.85116 40298 ft 465 kts 231°
2026-05-04 14:02 67.92822 -91.98554 40300 ft 465 kts 231°
2026-05-04 14:03 67.88769 -92.11962 40289 ft 466 kts 231°
2026-05-04 14:03 67.84704 -92.25324 40292 ft 465 kts 231°
2026-05-04 14:04 67.78584 -92.45287 40286 ft 466 kts 231°
2026-05-04 14:04 67.74519 -92.58447 40290 ft 465 kts 231°
2026-05-04 14:05 67.68359 -92.78240 40295 ft 466 kts 230°
2026-05-04 14:06 67.64237 -92.91381 40281 ft 466 kts 230°
2026-05-04 14:06 67.60100 -93.04492 40287 ft 467 kts 230°
2026-05-04 14:07 67.55951 -93.17562 40287 ft 467 kts 230°
2026-05-04 14:07 67.51788 -93.30598 40286 ft 467 kts 230°
2026-05-04 14:08 67.47616 -93.43581 40279 ft 467 kts 230°
2026-05-04 14:08 67.43430 -93.56532 40278 ft 467 kts 230°
2026-05-04 14:09 67.37128 -93.75885 40281 ft 468 kts 230°
2026-05-04 14:10 67.30787 -93.95180 40277 ft 469 kts 229°
2026-05-04 14:10 67.26546 -94.07992 40275 ft 469 kts 229°
2026-05-04 14:11 67.22291 -94.20769 40264 ft 469 kts 229°
2026-05-04 14:11 67.15895 -94.39834 40265 ft 469 kts 229°
2026-05-04 14:12 67.11615 -94.52497 40262 ft 469 kts 229°
2026-05-04 14:13 67.05168 -94.71434 40251 ft 470 kts 229°
2026-05-04 14:13 67.00851 -94.84021 40255 ft 470 kts 229°
2026-05-04 14:14 66.96527 -94.96554 40255 ft 470 kts 229°
2026-05-04 14:14 66.90022 -95.15276 40250 ft 470 kts 228°
2026-05-04 14:15 66.81338 -95.40014 40258 ft 470 kts 228°
2026-05-04 14:16 66.74771 -95.58531 40246 ft 472 kts 228°
2026-05-04 14:17 66.68172 -95.76985 40251 ft 472 kts 228°
2026-05-04 14:18 66.61549 -95.95342 40242 ft 472 kts 227°
2026-05-04 14:19 66.52685 -96.19668 40248 ft 472 kts 227°
2026-05-04 14:19 66.48239 -96.31765 40239 ft 472 kts 227°
2026-05-04 14:20 66.43780 -96.43831 40240 ft 472 kts 227°
2026-05-04 14:20 66.39303 -96.55875 40241 ft 473 kts 227°
2026-05-04 14:21 66.32561 -96.73887 40237 ft 474 kts 227°
2026-05-04 14:21 66.28054 -96.85843 40239 ft 474 kts 227°
2026-05-04 14:22 66.23534 -96.97766 40246 ft 474 kts 226°
2026-05-04 14:22 66.19041 -97.09552 40236 ft 474 kts 226°
2026-05-04 14:23 66.12232 -97.27292 40244 ft 474 kts 226°
2026-05-04 14:24 66.07684 -97.39058 40243 ft 474 kts 226°
2026-05-04 14:24 66.03119 -97.50799 40231 ft 475 kts 226°
2026-05-04 14:25 65.98542 -97.62510 40237 ft 476 kts 226°
2026-05-04 14:25 65.91650 -97.80022 40231 ft 476 kts 226°
2026-05-04 14:26 65.87045 -97.91642 40236 ft 476 kts 226°
2026-05-04 14:26 65.82431 -98.03221 40236 ft 476 kts 225°
2026-05-04 14:27 65.77806 -98.14764 40227 ft 476 kts 225°
2026-05-04 14:27 65.73175 -98.26260 40226 ft 476 kts 225°
2026-05-04 14:28 65.68537 -98.37710 40227 ft 476 kts 225°
2026-05-04 14:28 65.64671 -98.47207 40233 ft 476 kts 225°
2026-05-04 14:29 65.55313 -98.70019 40228 ft 478 kts 225°
2026-05-04 14:30 65.50617 -98.81375 40235 ft 478 kts 225°
2026-05-04 14:31 65.43557 -98.98333 40226 ft 478 kts 225°
2026-05-04 14:32 65.34116 -99.20795 40231 ft 478 kts 225°
2026-05-04 14:32 65.29380 -99.31972 40222 ft 479 kts 224°
2026-05-04 14:33 65.24622 -99.43143 40227 ft 480 kts 224°
2026-05-04 14:33 65.19853 -99.54277 40228 ft 480 kts 224°
2026-05-04 14:34 65.15076 -99.65376 40228 ft 480 kts 224°
2026-05-04 14:34 65.10285 -99.76445 40228 ft 480 kts 224°
2026-05-04 14:35 65.05490 -99.87465 40227 ft 480 kts 224°
2026-05-04 14:35 65.00672 -99.98411 40220 ft 480 kts 221°
2026-05-04 14:36 64.95545 -100.08544 40224 ft 480 kts 219°
2026-05-04 14:36 64.90336 -100.18439 40236 ft 481 kts 218°
2026-05-04 14:37 64.85095 -100.28280 40223 ft 482 kts 218°
2026-05-04 14:37 64.79880 -100.38040 40222 ft 482 kts 218°
2026-05-04 14:38 64.74628 -100.47839 40235 ft 482 kts 218°
2026-05-04 14:38 64.69376 -100.57595 40218 ft 482 kts 218°
2026-05-04 14:39 64.64114 -100.67316 40227 ft 482 kts 218°
2026-05-04 14:39 64.58846 -100.77004 40235 ft 483 kts 218°
2026-05-04 14:40 64.50911 -100.91500 40224 ft 485 kts 218°
2026-05-04 14:40 64.45599 -101.01143 40240 ft 484 kts 218°
2026-05-04 14:41 64.40286 -101.10736 40238 ft 484 kts 218°
2026-05-04 14:42 64.29654 -101.29793 40238 ft 484 kts 218°
2026-05-04 14:42 64.24335 -101.39256 40238 ft 483 kts 218°
2026-05-04 14:43 64.19009 -101.48684 40250 ft 483 kts 218°
2026-05-04 14:43 64.13682 -101.58069 40238 ft 483 kts 217°
2026-05-04 14:44 64.08345 -101.67422 40240 ft 483 kts 217°
2026-05-04 14:44 64.03037 -101.76679 40253 ft 483 kts 217°
2026-05-04 14:45 63.97654 -101.86020 40239 ft 483 kts 217°
2026-05-04 14:45 63.92312 -101.95246 40255 ft 482 kts 217°
2026-05-04 14:46 63.86970 -102.04428 40254 ft 481 kts 217°
2026-05-04 14:46 63.81620 -102.13578 40248 ft 483 kts 217°
2026-05-04 14:47 63.76248 -102.22722 40253 ft 484 kts 217°
2026-05-04 14:47 63.70893 -102.31792 40256 ft 484 kts 217°
2026-05-04 14:48 63.65495 -102.40889 40249 ft 484 kts 217°
2026-05-04 14:48 63.60095 -102.49946 40253 ft 484 kts 217°
2026-05-04 14:49 63.54686 -102.58975 40244 ft 485 kts 217°
2026-05-04 14:49 63.49265 -102.67979 40255 ft 485 kts 217°
2026-05-04 14:50 63.43833 -102.76961 40251 ft 487 kts 217°
2026-05-04 14:50 63.38362 -102.85962 40247 ft 489 kts 217°
2026-05-04 14:51 63.32879 -102.94936 40257 ft 489 kts 217°
2026-05-04 14:51 63.27394 -103.03874 40246 ft 488 kts 217°
2026-05-04 14:52 63.21926 -103.12739 40245 ft 486 kts 216°
2026-05-04 14:52 63.16472 -103.21537 40257 ft 485 kts 216°
2026-05-04 14:53 63.11010 -103.30307 40259 ft 485 kts 216°
2026-05-04 14:53 63.05542 -103.39047 40256 ft 486 kts 216°
2026-05-04 14:54 63.00060 -103.47767 40256 ft 486 kts 216°
2026-05-04 14:54 62.94574 -103.56453 40248 ft 486 kts 216°
2026-05-04 14:55 62.89080 -103.65108 40256 ft 486 kts 216°
2026-05-04 14:55 62.83585 -103.73726 40260 ft 486 kts 216°
2026-05-04 14:56 62.78088 -103.82307 40266 ft 486 kts 216°
2026-05-04 14:56 62.72621 -103.90799 40264 ft 486 kts 216°
2026-05-04 14:57 62.67107 -103.99327 40252 ft 487 kts 216°
2026-05-04 14:57 62.61577 -104.07837 40265 ft 487 kts 216°
2026-05-04 14:58 62.56047 -104.16308 40261 ft 487 kts 216°
2026-05-04 14:58 62.50507 -104.24756 40262 ft 487 kts 216°
2026-05-04 14:59 62.44966 -104.33166 40267 ft 487 kts 216°
2026-05-04 15:00 62.36642 -104.45725 40270 ft 487 kts 215°
2026-05-04 15:00 62.31084 -104.54065 40265 ft 487 kts 215°
2026-05-04 15:01 62.22740 -104.66511 40255 ft 487 kts 215°
2026-05-04 15:01 62.17171 -104.74771 40261 ft 487 kts 215°
2026-05-04 15:02 62.11591 -104.83011 40266 ft 487 kts 215°
2026-05-04 15:02 62.06008 -104.91216 40264 ft 487 kts 215°
2026-05-04 15:03 62.00420 -104.99387 40269 ft 487 kts 214°
2026-05-04 15:03 61.94756 -105.07335 40263 ft 488 kts 213°
2026-05-04 15:04 61.89045 -105.15117 40264 ft 488 kts 213°
2026-05-04 15:04 61.83330 -105.22872 40263 ft 488 kts 213°
2026-05-04 15:05 61.77605 -105.30636 40268 ft 489 kts 213°
2026-05-04 15:05 61.71919 -105.38327 40266 ft 489 kts 213°
2026-05-04 15:06 61.66149 -105.46101 40265 ft 489 kts 213°
2026-05-04 15:07 61.57543 -105.57630 40266 ft 489 kts 213°
2026-05-04 15:07 61.51834 -105.65234 40266 ft 489 kts 213°
2026-05-04 15:08 61.46083 -105.72861 40258 ft 490 kts 213°
2026-05-04 15:08 61.40317 -105.80473 40260 ft 490 kts 213°
2026-05-04 15:09 61.34544 -105.88062 40260 ft 491 kts 213°
2026-05-04 15:09 61.28767 -105.95622 40261 ft 490 kts 213°
2026-05-04 15:10 61.20091 -106.06912 40260 ft 491 kts 213°
2026-05-04 15:11 61.11406 -106.18140 40258 ft 491 kts 213°
2026-05-04 15:11 61.05602 -106.25603 40248 ft 492 kts 213°
2026-05-04 15:12 60.99786 -106.33046 40246 ft 492 kts 213°
2026-05-04 15:12 60.93967 -106.40461 40245 ft 492 kts 213°
2026-05-04 15:13 60.88141 -106.47854 40253 ft 492 kts 213°
2026-05-04 15:13 60.82310 -106.55220 40256 ft 492 kts 213°
2026-05-04 15:14 60.76477 -106.62558 40247 ft 492 kts 213°
2026-05-04 15:14 60.70670 -106.69832 40262 ft 493 kts 213°
2026-05-04 15:15 60.64817 -106.77131 40254 ft 493 kts 213°
2026-05-04 15:15 60.58954 -106.84410 40259 ft 493 kts 213°
2026-05-04 15:16 60.50154 -106.95278 40251 ft 493 kts 212°
2026-05-04 15:17 60.41347 -107.06083 40257 ft 493 kts 212°
2026-05-04 15:17 60.32528 -107.16837 40249 ft 494 kts 213°
2026-05-04 15:18 60.27593 -107.22824 40251 ft 494 kts 212°
2026-05-04 15:19 60.18746 -107.33502 40250 ft 494 kts 212°
2026-05-04 15:19 60.09928 -107.44078 40247 ft 494 kts 212°
2026-05-04 15:20 60.04020 -107.51126 40226 ft 495 kts 212°
2026-05-04 15:20 59.98100 -107.58160 40246 ft 495 kts 212°
2026-05-04 15:21 59.92176 -107.65169 40246 ft 495 kts 212°
2026-05-04 15:22 59.83277 -107.75643 40243 ft 495 kts 212°
2026-05-04 15:22 59.74369 -107.86063 40238 ft 495 kts 212°
2026-05-04 15:23 59.68425 -107.92982 40212 ft 495 kts 212°
2026-05-04 15:23 59.62476 -107.99877 40232 ft 496 kts 212°
2026-05-04 15:24 59.50566 -108.13594 40233 ft 496 kts 212°
2026-05-04 15:25 59.44608 -108.20415 40236 ft 496 kts 212°
2026-05-04 15:26 59.35662 -108.30603 40236 ft 496 kts 212°
2026-05-04 15:26 59.26706 -108.40742 40237 ft 496 kts 212°
2026-05-04 15:27 59.17781 -108.50782 40230 ft 496 kts 212°
2026-05-04 15:28 59.08808 -108.60815 40234 ft 496 kts 212°
2026-05-04 15:29 58.99818 -108.70805 40225 ft 496 kts 212°
2026-05-04 15:30 58.78815 -108.93909 40224 ft 496 kts 212°
2026-05-04 15:31 58.69797 -109.03730 40222 ft 496 kts 212°
2026-05-04 15:32 58.54789 -109.19944 40216 ft 497 kts 212°
2026-05-04 15:34 58.39698 -109.36085 40211 ft 497 kts 212°
2026-05-04 15:34 58.30632 -109.45704 40206 ft 497 kts 212°
2026-05-04 15:35 58.21561 -109.55272 40199 ft 497 kts 212°
2026-05-04 15:36 58.12490 -109.64783 40198 ft 497 kts 211°
2026-05-04 15:36 58.06435 -109.71101 40195 ft 497 kts 212°
2026-05-04 15:37 58.00379 -109.77395 40190 ft 497 kts 211°
2026-05-04 15:37 57.94316 -109.83672 40191 ft 497 kts 211°
2026-05-04 15:38 57.88251 -109.89927 40174 ft 497 kts 212°
2026-05-04 15:38 57.82178 -109.96166 40188 ft 498 kts 211°
2026-05-04 15:39 57.76094 -110.02392 40189 ft 498 kts 211°
2026-05-04 15:40 57.66961 -110.11692 40188 ft 498 kts 211°
2026-05-04 15:40 57.60864 -110.17871 40185 ft 499 kts 211°
2026-05-04 15:41 57.54763 -110.24032 40180 ft 499 kts 211°
2026-05-04 15:41 57.48657 -110.30174 40187 ft 500 kts 211°
2026-05-04 15:42 57.42529 -110.36316 40189 ft 500 kts 211°
2026-05-04 15:42 57.36399 -110.42436 40194 ft 501 kts 211°
2026-05-04 15:43 57.30306 -110.48495 40186 ft 500 kts 211°
2026-05-04 15:43 57.24167 -110.54577 40185 ft 500 kts 211°
2026-05-04 15:44 57.18032 -110.60633 40177 ft 500 kts 212°
2026-05-04 15:44 57.11885 -110.66679 40197 ft 501 kts 212°
2026-05-04 15:45 57.05725 -110.72713 40197 ft 502 kts 211°
2026-05-04 15:45 56.99562 -110.78727 40197 ft 502 kts 211°
2026-05-04 15:46 56.93393 -110.84724 40188 ft 502 kts 211°
2026-05-04 15:46 56.87227 -110.90696 40185 ft 502 kts 211°
2026-05-04 15:47 56.81057 -110.96647 40168 ft 502 kts 212°
2026-05-04 15:47 56.74873 -111.02591 40165 ft 503 kts 212°
2026-05-04 15:48 56.68680 -111.08522 40156 ft 503 kts 211°
2026-05-04 15:48 56.59313 -111.17134 40155 ft 504 kts 209°
2026-05-04 15:49 56.52973 -111.22580 40161 ft 504 kts 209°
2026-05-04 15:49 56.46634 -111.28000 40169 ft 504 kts 209°
2026-05-04 15:50 56.40299 -111.33433 40181 ft 504 kts 209°
2026-05-04 15:50 56.33972 -111.38861 40201 ft 504 kts 210°
2026-05-04 15:51 56.27645 -111.44272 40201 ft 504 kts 209°
2026-05-04 15:51 56.21357 -111.49629 40191 ft 504 kts 209°
2026-05-04 15:52 56.15017 -111.55009 40204 ft 504 kts 209°
2026-05-04 15:52 56.08680 -111.60365 40194 ft 503 kts 209°
2026-05-04 15:53 56.02347 -111.65699 40201 ft 503 kts 209°
2026-05-04 15:53 55.96012 -111.71014 40192 ft 503 kts 209°
2026-05-04 15:54 55.89582 -111.75925 40198 ft 507 kts 199°
2026-05-04 15:54 55.82690 -111.78757 40190 ft 509 kts 194°
2026-05-04 15:55 55.75712 -111.81044 40190 ft 510 kts 193°
2026-05-04 15:55 55.68720 -111.83236 40181 ft 511 kts 193°
2026-05-04 15:56 55.61716 -111.85463 40181 ft 512 kts 193°
2026-05-04 15:56 55.54714 -111.87716 40181 ft 512 kts 193°
2026-05-04 15:57 55.47707 -111.89973 40179 ft 512 kts 193°
2026-05-04 15:57 55.40702 -111.92221 40178 ft 512 kts 193°
2026-05-04 15:58 55.33700 -111.94460 40173 ft 511 kts 193°
2026-05-04 15:58 55.26695 -111.96690 40171 ft 511 kts 193°
2026-05-04 15:59 55.19698 -111.98910 40171 ft 511 kts 193°
2026-05-04 15:59 55.12700 -112.01123 40168 ft 511 kts 193°
2026-05-04 16:00 55.05701 -112.03328 40173 ft 511 kts 193°
2026-05-04 16:00 54.98706 -112.05524 40171 ft 510 kts 193°
2026-05-04 16:01 54.91715 -112.07711 40168 ft 510 kts 193°
2026-05-04 16:01 54.84729 -112.09888 40168 ft 510 kts 193°
2026-05-04 16:02 54.77789 -112.12044 40164 ft 510 kts 193°
2026-05-04 16:03 54.67317 -112.15284 40163 ft 511 kts 193°
2026-05-04 16:03 54.60302 -112.17445 40164 ft 513 kts 193°
2026-05-04 16:04 54.53269 -112.19603 40155 ft 513 kts 193°
2026-05-04 16:04 54.42718 -112.22825 40160 ft 514 kts 193°
2026-05-04 16:05 54.35680 -112.24965 40160 ft 514 kts 193°
2026-05-04 16:06 54.25119 -112.28164 40160 ft 514 kts 193°
2026-05-04 16:07 54.11000 -112.32419 40166 ft 517 kts 194°
2026-05-04 16:08 53.98002 -112.36301 40162 ft 518 kts 194°
2026-05-04 16:09 53.80267 -112.41564 40160 ft 518 kts 193°
2026-05-04 16:10 53.66068 -112.45746 40163 ft 519 kts 193°
2026-05-04 16:11 53.51835 -112.49910 40155 ft 519 kts 193°
2026-05-04 16:12 53.30513 -112.56093 40152 ft 518 kts 193°
2026-05-04 16:13 53.16344 -112.60170 40147 ft 519 kts 194°
2026-05-04 16:14 53.02101 -112.64237 40150 ft 519 kts 194°
2026-05-04 16:16 52.84314 -112.69280 40147 ft 519 kts 194°
2026-05-04 16:17 52.66801 -112.75756 40149 ft 515 kts 200°
2026-05-04 16:18 52.56384 -112.80334 39498 ft 522 kts 200°
2026-05-04 16:18 52.52860 -112.81877 38643 ft 526 kts 200°
2026-05-04 16:19 52.42179 -112.86499 35531 ft 520 kts 201°
2026-05-04 16:19 52.35286 -112.89441 34097 ft 507 kts 202°
2026-05-04 16:20 52.25179 -112.93782 31691 ft 499 kts 202°
2026-05-04 16:20 52.18439 -112.96673 30324 ft 501 kts 202°
2026-05-04 16:21 52.08383 -113.00945 28484 ft 494 kts 202°
2026-05-04 16:22 52.01763 -113.03745 27300 ft 489 kts 202°
2026-05-04 16:22 51.91950 -113.07882 25461 ft 481 kts 201°
2026-05-04 16:23 51.82328 -113.11921 23692 ft 473 kts 201°
2026-05-04 16:24 51.69884 -113.17113 21305 ft 453 kts 201°
2026-05-04 16:25 51.63847 -113.19624 20175 ft 443 kts 201°
2026-05-04 16:26 51.52151 -113.24472 17906 ft 424 kts 201°
2026-05-04 16:26 51.45113 -113.30978 16358 ft 372 kts 238°
2026-05-04 16:27 51.41862 -113.37295 15239 ft 363 kts 238°
2026-05-04 16:28 51.37122 -113.46500 13830 ft 352 kts 238°
2026-05-04 16:28 51.32486 -113.55404 12401 ft 342 kts 237°
2026-05-04 16:29 51.26616 -113.66616 10771 ft 318 kts 236°
2026-05-04 16:30 51.22626 -113.74196 10469 ft 282 kts 237°
2026-05-04 16:31 51.20121 -113.78976 9770 ft 283 kts 237°
2026-05-04 16:31 51.15660 -113.84727 9192 ft 280 kts 193°
2026-05-04 16:32 51.10017 -113.84907 8613 ft 267 kts 182°
2026-05-04 16:33 51.06328 -113.84871 8049 ft 265 kts 182°
2026-05-04 16:33 51.02695 -113.84870 7684 ft 259 kts 182°
2026-05-04 16:34 50.99098 -113.84884 7388 ft 258 kts 183°
2026-05-04 16:34 50.97311 -113.84892 7228 ft 257 kts 182°
2026-05-04 16:35 50.92963 -113.87975 6779 ft 227 kts 257°
2026-05-04 16:35 50.93030 -113.95111 6491 ft 211 kts 296°
2026-05-04 16:36 50.93768 -113.97064 6510 ft 204 kts 315°
2026-05-04 16:36 50.96135 -113.98939 6412 ft 182 kts 350°
2026-05-04 16:37 50.98569 -113.99027 6173 ft 173 kts 359°
2026-05-04 16:37 50.99768 -113.99021 5932 ft 172 kts 358°
2026-05-04 16:37 51.02105 -113.99025 5455 ft 158 kts 358°
2026-05-04 16:38 51.04128 -113.99022 5048 ft 133 kts 358°
2026-05-04 16:39 51.06764 -113.99026 4526 ft 126 kts 358°
2026-05-04 16:39 51.08520 -113.99026 4133 ft 126 kts 358°
2026-05-04 16:40 51.10257 -113.99034 3777 ft 122 kts 358°
2026-05-04 16:40 51.11801 -113.99036 3566 ft 78 kts
2026-05-04 16:41 51.12344 -113.99091 3557 ft 24 kts 339°
2026-05-04 16:41 51.12666 -113.99313 3557 ft 11 kts 338°
2026-05-04 16:42 51.12701 -113.99697 3563 ft 14 kts 268°
2026-05-04 16:43 51.12799 -113.99880 3562 ft 11 kts 345°
2026-05-04 16:43 51.12835 -114.00093 3563 ft 9 kts 270°
2026-05-04 16:43 51.12851 -114.00193 3559 ft 9 kts 309°
2026-05-04 16:44 51.12892 -114.00261 3558 ft 0 kts 314°